Yakima, WA
on Friday, February 22, 2013

Friday
Previous Day Next Day
Daily Summary
 ActualAverageRecord
Temperature
Mean Temperature °F 38°F  
Max Temperature 55°F 49°F 67°F (2002)
Min Temperature 30°F 27°F 1°F (1993)
Degree Days
Heating Degree Days 22 27  
Month to date heating degree days 545 649  
Since 1 July heating degree days 3814 4367  
Cooling Degree Days 0 0  
Month to date cooling degree days 0 0  
Year to date cooling degree days 0 0  
Moisture
Dew Point 29°F   
Average Humidity 62    
Maximum Humidity 85    
Minimum Humidity 38    
Precipitation
Precipitation 0.00 in 0.03 in 0.28 in (2009)
Month to date precipitation T 0.62  
Year to date precipitation 0.10 1.76  
Snow
Snow 0.00 in 0.10 in 1.30 in (1957)
Month to date snowfall 0.0 2.2  
Year to date snowfall 1.1 7.5  
Since 1 July snowfall 15.3 20.5  
Snow Depth 0.00 in   
Wind
Wind Speed 11 mph   
Max Wind Speed 32 mph   
Max Gust Speed 58 mph   
Visibility 10 miles   
Events     

Key: T is trace of precipitation, MM is missing value
Source: NWS Daily Summary
Time(PST)TemperatureDew PointHumidity Pressure Visibility Wind DirectionWind SpeedGust SpeedPrecipitationEvents Conditions
12:53 AM 33.1°F 27.0°F 78% 30.02 in 10.0 miles WSW 3.5 mph - N/A   Clear
1:53 AM 34.0°F 27.0°F 75% 30.03 in 10.0 miles West 3.5 mph - N/A   Clear
2:53 AM 30.9°F 26.1°F 82% 30.01 in 10.0 miles NW 3.5 mph - N/A   Clear
3:53 AM 30.9°F 26.1°F 82% 30.00 in 10.0 miles South 3.5 mph - N/A   Partly Cloudy
4:53 AM 34.0°F 28.0°F 79% 30.00 in 10.0 miles Calm Calm - N/A   Overcast
5:53 AM 35.1°F 28.9°F 78% 29.98 in 10.0 miles Calm Calm - N/A   Overcast
6:53 AM 39.9°F 30.0°F 68% 29.96 in 10.0 miles Calm Calm - N/A   Overcast
7:53 AM 42.1°F 30.0°F 62% 29.93 in 10.0 miles East 8.1 mph - N/A   Overcast
8:53 AM 44.6°F 32.0°F 61% 29.89 in 10.0 miles East 5.8 mph - N/A   Overcast
9:53 AM 46.9°F 32.0°F 56% 29.87 in 10.0 miles South 19.6 mph 29.9 mph N/A   Overcast
10:53 AM 48.0°F 33.1°F 56% 29.83 in 10.0 miles SSW 19.6 mph 28.8 mph N/A   Overcast
11:53 AM 51.1°F 33.1°F 50% 29.79 in 10.0 miles South 20.7 mph 27.6 mph N/A   Mostly Cloudy
12:53 PM 53.1°F 34.0°F 48% 29.73 in 10.0 miles South 19.6 mph 27.6 mph N/A   Scattered Clouds
1:53 PM 55.0°F 30.9°F 40% 29.70 in 10.0 miles SW 23.0 mph 32.2 mph N/A   Clear
2:53 PM 51.1°F 30.0°F 44% 29.68 in 10.0 miles WSW 24.2 mph 38.0 mph N/A   Scattered Clouds
3:53 PM 52.0°F 32.0°F 47% 29.67 in 10.0 miles SSW 26.5 mph 33.4 mph N/A   Scattered Clouds
4:53 PM 50.0°F 30.0°F 46% 29.68 in 10.0 miles SSW 18.4 mph 32.2 mph N/A   Scattered Clouds
5:53 PM 46.0°F 30.0°F 54% 29.70 in 10.0 miles SW 6.9 mph - N/A   Scattered Clouds
6:53 PM 42.1°F 28.0°F 58% 29.71 in 10.0 miles SW 5.8 mph - N/A   Scattered Clouds
7:53 PM 41.0°F 28.0°F 60% 29.75 in 10.0 miles WSW 8.1 mph - N/A   Clear
8:53 PM 39.0°F 28.9°F 67% 29.75 in 10.0 miles West 21.9 mph 36.8 mph N/A   Clear
9:53 PM 36.0°F 27.0°F 70% 29.81 in 10.0 miles West 4.6 mph - N/A   Clear
10:53 PM 30.9°F 21.9°F 69% 29.85 in 10.0 miles WSW 6.9 mph - N/A   Clear
11:53 PM 37.9°F 23.0°F 55% 29.86 in 10.0 miles WSW 10.4 mph - N/A   Clear
Moon Phase
Feb. 22 Feb. 25 Mar. 04 Mar. 11 Mar. 19
Sunrise:06:53 AM (PST) Moon Rise:02:48 PM (PST)
Sunset:05:38 PM (PST) Moon Set:04:49 AM (PST)

Copyright © 2014 The Weather Underground, Inc.